GFSFLT2_700_rhum_000.txt.gz
RH
17 14 11 11 10 10 11 18 36 35 32 28 39 91 77 90 98 100 100 92 100 100 100 100 100 97 100
16 13 11 11 11 11 14 23 33 31 34 52 53 42 51 73 70 87 92 100 100 99 98 85 85 85 91
13 13 13 16 16 21 26 30 34 33 37 43 43 45 42 67 100 99 80 56 37 78 100 88 88 92 79
22 21 55 55 67 49 30 32 31 38 43 40 42 39 43 44 38 34 32 32 32 37 68 68 65 70 46
58 89 74 56 55 45 39 41 40 42 49 53 70 67 64 58 52 48 48 51 52 82 93 81 90 86 82
100 92 76 64 50 47 51 53 52 64 78 65 84 75 74 76 76 69 64 62 72 78 71 52 63 84 93
99 81 59 57 60 58 65 82 78 74 91 83 83 78 81 78 73 62 62 69 93 98 97 92 66 53 68
71 67 64 66 72 94 92 92 91 86 97 95 79 81 80 74 67 67 64 67 90 97 100 98 99 99 86
61 63 73 92 98 98 94 98 89 82 91 89 81 81 76 60 66 72 78 81 96 96 97 96 96 98 88
59 83 99 100 100 100 100 99 94 76 91 97 84 90 63 58 62 73 73 82 96 97 96 96 98 97 90
88 97 99 98 99 100 100 99 94 88 96 100 90 93 96 78 73 77 73 90 97 98 97 97 97 97 87
96 96 94 95 95 96 97 98 99 98 94 100 95 97 95 79 78 79 90 90 99 100 97 96 100 99 99
90 95 96 96 97 96 98 97 97 97 98 98 98 99 100 87 81 91 93 96 96 96 96 97 97 94 96
94 96 97 95 96 95 95 96 95 97 98 98 98 99 96 92 97 96 98 94 95 95 95 97 100 96 79
94 93 90 79 89 97 98 97 97 95 96 98 98 97 96 96 97 97 96 93 95 97 98 97 100 86 81
95 96 83 79 90 97 99 98 95 96 95 97 97 96 97 97 96 87 89 95 97 96 96 96 96 96 97
98 95 92 100 98 98 97 97 98 95 96 97 97 96 97 96 91 98 97 97 96 96 96 98 96 96 98

GFSFLT2_700_rhum_003.txt.gz
RH
17 18 19 19 18 16 16 16 21 21 18 17 20 24 29 84 100 100 100 100 100 100 100 97 94 80 67
7 8 12 12 16 17 19 24 40 31 23 24 28 31 40 41 52 79 93 92 93 97 96 95 94 87 79
15 13 16 21 21 22 31 33 31 30 30 35 40 43 43 42 46 77 100 96 91 94 96 86 88 97 98
27 35 49 46 70 74 41 45 38 39 40 42 56 60 69 70 66 67 55 41 42 44 44 37 32 48 92
63 77 75 79 80 72 58 47 42 42 64 64 71 68 66 73 76 74 73 69 50 42 41 52 89 74 81
100 98 80 84 72 57 51 56 62 67 75 70 78 69 70 76 80 81 74 74 66 52 50 54 72 100 100
98 77 68 58 64 73 87 83 71 74 96 78 80 71 80 79 83 83 75 64 59 58 58 63 68 70 70
58 60 70 91 100 97 93 85 80 87 100 86 81 78 78 78 81 80 71 66 66 64 67 78 94 97 98
68 86 90 94 98 98 92 93 83 82 98 90 81 82 78 71 77 81 77 70 59 56 69 94 100 100 95
78 86 95 99 100 99 98 96 94 77 98 97 88 90 73 66 71 80 71 64 60 70 96 95 96 96 93
83 88 91 96 97 98 99 100 95 87 99 100 90 91 98 78 72 83 72 64 78 98 98 96 96 96 93
87 88 88 92 90 88 99 98 99 99 96 100 96 100 96 88 88 90 98 99 99 98 97 97 98 96 96
88 89 91 90 81 71 93 97 99 97 98 98 96 95 100 98 97 97 92 98 99 96 96 96 97 97 96
91 92 93 80 78 91 89 93 90 96 99 95 95 98 98 98 96 96 97 94 95 96 95 94 100 98 97
94 94 89 91 92 94 95 94 97 93 94 96 96 95 96 96 96 97 96 96 96 96 97 95 99 100 100
99 99 91 91 90 93 99 98 95 95 91 94 96 97 97 97 97 98 97 97 97 96 96 97 97 75 78
100 98 94 97 96 94 96 95 97 95 96 96 96 96 96 97 98 99 98 97 97 96 94 95 97 92 75

GFSFLT2_700_rhum_006.txt.gz
RH
10 6 4 5 7 10 14 30 44 52 45 36 41 30 20 15 15 16 20 30 94 100 94 93 90 87 85
4 7 12 16 18 24 34 46 62 61 56 47 43 39 37 38 39 41 53 48 38 40 100 96 95 89 82
16 19 22 27 35 41 52 49 47 47 52 53 53 60 62 66 63 60 57 55 51 63 99 99 99 96 92
30 38 41 44 55 54 45 44 42 56 68 75 81 81 80 82 76 72 70 67 65 63 62 48 48 50 60
56 51 49 47 48 46 48 62 63 82 89 82 83 78 74 77 79 76 73 70 68 69 69 69 68 47 38
41 39 44 47 57 68 73 74 60 76 87 72 88 75 79 83 83 86 85 82 78 75 68 64 67 64 56
41 46 62 72 75 79 80 78 73 80 95 75 82 71 81 88 93 96 96 87 80 74 63 58 59 55 50
64 74 76 82 92 94 90 86 78 84 98 84 82 75 75 72 81 87 90 89 70 51 42 41 44 48 51
77 79 80 86 96 99 97 87 69 77 96 86 79 77 76 75 80 79 73 70 58 43 39 43 53 60 74
74 82 89 93 98 98 90 69 80 76 94 89 82 93 76 94 99 93 67 63 63 64 66 70 78 94 87
80 85 86 87 88 86 82 86 92 87 99 100 89 94 99 86 100 97 91 85 82 93 97 96 95 95 89
84 86 82 84 77 77 94 98 99 100 95 98 94 97 94 94 94 93 97 97 96 98 97 98 98 96 94
85 85 88 87 94 89 93 96 97 97 96 93 96 97 99 97 93 95 86 93 95 93 94 96 95 96 96
91 89 91 91 96 94 89 90 85 93 99 95 95 99 96 98 98 97 96 92 87 98 98 98 96 95 95
93 89 88 91 94 96 97 96 95 86 88 98 97 100 98 97 97 96 96 98 99 97 97 100 97 96 96
94 94 89 90 90 95 99 98 94 90 90 89 94 98 97 94 88 87 96 96 97 96 96 96 99 98 96
98 97 92 92 94 93 94 90 92 94 87 92 100 94 84 80 91 97 92 93 96 97 96 97 100 100 100

GFSFLT2_700_rhum_009.txt.gz
RH
9 6 5 9 15 23 31 34 29 27 28 29 32 35 35 33 31 30 27 23 82 100 100 100 100 100 100
6 5 9 18 22 22 25 27 31 36 46 55 59 62 65 64 56 48 51 100 100 100 100 95 100 99 100
8 12 20 19 19 24 28 36 52 60 68 75 78 83 84 82 82 75 70 69 63 55 47 49 63 91 93
20 21 23 26 28 35 45 52 58 66 69 75 80 84 84 82 81 77 74 71 70 67 65 62 59 55 47
29 29 27 31 52 54 56 59 59 71 68 68 73 72 73 74 78 84 91 84 76 72 69 67 64 60 59
30 31 45 66 62 63 65 67 53 67 60 57 80 68 80 81 85 88 90 86 79 81 79 74 70 69 76
35 61 69 72 73 68 68 69 59 56 56 66 76 71 84 85 97 98 87 77 74 74 64 59 57 56 52
70 73 78 79 85 82 76 75 62 52 90 72 78 76 82 100 100 100 83 72 68 67 58 45 37 32 29
80 83 82 85 90 85 86 74 45 62 92 78 76 78 86 100 97 92 93 82 65 58 52 50 50 50 42
72 79 84 88 94 94 89 79 87 72 92 79 80 90 65 95 97 98 97 98 100 94 88 89 94 93 85
74 79 83 84 88 94 100 99 94 90 99 89 85 93 94 80 93 97 97 93 96 98 98 98 98 100 90
82 83 79 83 90 92 97 100 100 99 94 92 90 97 86 82 88 89 95 96 93 90 94 96 97 98 99
85 83 83 86 89 88 93 96 99 98 98 92 90 94 97 99 95 92 90 83 96 95 96 96 96 97 94
85 87 87 87 89 90 85 86 85 88 99 95 92 93 86 99 98 88 95 95 94 96 96 97 98 94 92
90 85 87 87 90 91 89 87 90 83 81 97 98 96 96 94 83 92 88 89 96 96 95 96 97 94 99
90 93 91 91 91 95 96 94 90 89 86 86 83 85 93 89 90 77 85 90 96 97 97 96 96 75 76
97 98 95 93 98 96 94 92 90 91 95 89 90 86 79 76 79 96 93 87 90 99 98 97 95 89 86

GFSFLT2_700_rhum_012.txt.gz
RH
10 10 8 6 7 12 22 19 15 20 32 41 46 46 48 51 55 55 56 54 46 34 64 91 94 86 78
10 8 6 9 13 22 20 19 30 41 43 51 52 51 54 59 61 63 63 64 64 62 67 100 98 96 88
5 6 8 12 21 22 22 42 49 49 55 63 60 59 60 66 71 70 67 66 69 68 66 63 62 60 60
8 12 14 20 25 30 50 53 53 58 61 57 53 49 51 65 69 68 67 65 71 74 74 72 65 63 60
20 19 20 27 40 58 57 58 52 65 61 43 42 48 65 71 71 72 73 73 73 76 78 73 72 69 68
23 27 34 56 65 63 68 61 47 62 67 29 62 60 73 74 82 81 77 78 79 78 76 69 67 70 70
29 50 68 72 78 70 69 71 64 66 61 44 71 65 76 88 81 75 81 85 87 82 74 70 67 63 57
68 75 80 83 88 83 78 70 63 72 94 62 69 69 76 95 90 91 98 95 91 93 93 73 60 55 49
76 85 86 89 92 85 82 85 74 69 94 74 70 71 76 97 96 96 97 99 100 100 100 95 93 92 75
76 85 88 87 91 98 97 92 90 69 94 72 72 84 58 81 95 94 87 97 94 97 97 98 98 95 86
79 83 84 87 90 100 100 100 90 85 94 88 74 84 90 72 69 86 82 85 88 94 97 97 97 100 98
82 85 83 86 90 98 99 98 97 94 86 93 81 85 84 80 75 68 74 82 95 94 96 94 96 99 97
82 86 84 83 88 88 89 91 90 96 96 93 90 86 90 93 83 75 79 78 97 97 95 96 96 96 88
84 82 83 85 89 96 88 89 88 87 99 95 93 90 90 99 94 87 86 89 92 97 92 96 98 92 88
87 84 86 87 90 98 94 89 91 86 80 84 96 98 99 100 94 91 79 88 96 96 92 85 98 96 90
92 94 94 95 94 94 96 93 90 89 88 85 80 78 81 84 88 87 78 90 89 96 98 95 95 98 99
96 99 96 94 97 95 94 93 89 90 92 90 89 91 76 65 63 93 81 88 82 96 97 100 97 95 86

GFSFLT2_700_rhum_015.txt.gz
RH
7 7 7 6 4 4 8 11 12 13 16 31 42 41 42 48 46 46 44 46 48 49 49 49 51 57 98
3 3 4 4 6 11 14 15 16 29 43 46 52 50 53 55 52 50 48 50 51 55 54 54 54 56 72
3 3 4 9 12 15 18 21 43 48 52 58 55 50 55 47 36 34 42 53 54 56 57 58 58 56 57
4 5 11 14 20 26 31 52 50 56 60 61 53 58 40 37 54 60 60 60 61 66 70 71 70 70 67
8 12 14 17 35 53 58 57 55 62 65 51 59 50 50 67 68 63 61 68 71 79 82 82 77 76 74
15 16 19 49 62 64 65 67 58 60 70 50 71 51 65 67 72 70 70 75 78 81 90 96 81 68 65
18 36 62 69 74 72 70 73 66 65 82 63 66 52 68 71 84 81 80 87 88 91 91 94 98 93 64
56 68 75 78 82 83 80 75 61 67 88 81 66 61 62 74 94 91 96 100 91 95 99 100 98 92 90
70 77 81 86 92 90 82 79 64 57 81 90 67 61 58 70 95 100 93 86 86 89 94 92 96 94 87
72 78 82 84 87 91 92 89 83 61 84 80 68 81 48 57 73 86 82 81 78 78 84 96 98 96 90
74 76 78 83 86 89 100 100 96 81 96 94 72 79 84 56 58 69 75 71 69 68 82 100 97 97 95
76 82 83 82 83 90 95 99 100 99 87 100 86 87 80 68 63 59 69 73 70 71 86 99 97 98 99
80 81 83 84 86 91 86 89 90 98 98 100 93 88 88 84 78 67 76 62 67 76 90 91 96 97 93
85 86 85 89 92 96 92 93 86 84 96 100 95 91 88 91 92 80 86 80 69 82 94 92 96 98 98
87 89 91 91 92 97 97 91 91 89 81 88 88 91 94 94 92 89 88 69 69 93 93 90 94 97 91
92 94 91 91 90 89 95 95 92 92 90 91 82 74 73 75 97 98 84 71 78 86 95 96 90 98 93
95 97 93 91 95 93 95 97 94 96 92 96 90 88 79 66 67 97 91 81 83 80 93 97 94 95 98

GFSFLT2_700_rhum_018.txt.gz
RH
7 5 4 4 4 3 3 4 8 10 11 15 32 43 42 45 49 49 46 44 42 42 44 43 42 45 55
5 4 4 4 4 4 8 12 11 14 36 47 51 55 55 56 51 48 44 42 37 30 29 36 44 47 50
4 4 4 4 6 12 12 12 30 49 52 59 60 58 58 52 52 47 35 31 34 47 52 55 55 54 58
4 4 5 9 13 15 23 46 46 52 56 62 58 58 56 57 55 48 50 52 53 56 62 62 62 63 62
5 7 12 14 38 51 49 50 50 58 56 50 57 54 56 61 62 66 65 59 63 69 68 69 76 76 75
11 13 21 58 60 63 60 58 51 62 60 47 65 56 62 64 66 70 62 64 76 81 79 79 78 80 84
16 42 56 64 68 70 68 66 60 63 71 60 65 54 60 61 70 79 76 81 85 86 87 89 85 84 85
55 61 67 71 76 74 71 69 62 67 74 77 60 49 52 57 66 82 89 93 92 92 97 83 82 81 82
66 72 75 76 79 76 76 72 64 61 72 89 67 55 45 45 62 72 95 100 95 91 85 85 77 73 74
68 71 73 76 80 82 78 74 76 59 85 85 74 85 46 43 52 64 74 83 88 89 83 79 76 75 79
68 74 74 76 78 85 92 94 91 83 97 99 85 87 91 55 49 62 67 71 75 77 78 76 75 80 89
71 70 68 74 82 90 93 99 100 97 91 95 93 96 88 76 62 57 65 73 72 66 64 63 63 79 98
69 72 80 85 88 89 93 97 92 97 99 100 98 96 93 85 72 64 68 63 68 63 59 57 60 93 89
77 85 88 87 90 92 86 88 81 82 91 100 98 98 89 86 86 83 87 77 62 60 58 64 83 91 95
90 92 90 90 91 94 92 87 88 86 82 91 95 92 92 98 93 91 88 78 68 64 72 79 82 96 87
95 96 94 92 88 90 95 95 90 88 89 95 90 80 75 79 98 93 83 74 69 74 82 86 82 91 96
96 98 96 93 95 92 93 93 90 91 92 98 91 94 82 66 78 99 93 84 84 79 85 83 80 89 99

GFSFLT2_700_rhum_021.txt.gz
RH
12 9 8 6 5 4 3 3 3 4 7 7 11 25 27 41 42 43 46 46 45 44 42 43 44 45 76
9 7 6 5 4 3 4 5 7 8 18 37 43 40 49 49 49 48 47 44 42 40 40 38 34 32 31
6 6 5 4 4 4 6 8 20 43 43 48 51 52 57 55 52 50 45 44 42 43 37 39 51 52 48
5 5 4 4 6 8 14 40 42 48 48 53 53 58 60 56 55 54 57 55 51 46 49 55 56 57 59
5 5 5 7 16 39 44 46 43 50 48 49 55 53 53 55 58 63 68 67 60 58 58 58 64 65 63
6 6 10 33 50 50 48 45 36 50 47 46 59 53 52 53 59 69 70 70 63 59 62 74 72 72 72
7 16 44 56 54 52 54 54 54 57 56 46 57 53 55 52 62 70 68 73 67 65 72 80 78 76 74
22 51 59 61 62 62 62 59 57 62 68 56 59 51 50 54 62 73 80 83 77 70 74 81 79 78 76
60 64 68 70 73 67 69 62 58 61 74 74 61 56 52 50 60 68 73 74 79 85 81 77 78 79 74
63 68 71 73 77 81 80 77 76 64 87 73 69 73 48 49 50 61 68 74 80 78 78 77 75 74 68
62 68 67 73 80 90 93 92 85 78 94 91 79 87 85 64 51 61 64 68 70 68 75 78 78 78 72
68 70 69 77 82 86 88 90 93 89 91 100 94 94 88 75 64 62 67 70 70 66 71 74 76 75 73
71 73 77 80 83 82 88 91 90 98 97 100 97 92 90 85 79 71 70 68 77 70 66 65 63 62 58
75 80 83 85 86 86 82 84 79 78 92 97 97 99 95 93 89 79 86 80 74 74 68 60 60 63 75
80 82 85 84 85 91 91 86 84 83 82 94 99 100 99 99 89 93 94 81 72 66 67 68 69 77 88
83 87 87 88 86 90 93 94 90 91 92 98 94 88 85 83 97 90 74 68 70 76 82 79 71 81 91
87 92 94 89 90 91 93 94 93 97 97 99 94 98 86 70 82 99 94 87 88 79 84 82 76 77 85

GFSFLT2_700_rhum_024.txt.gz
RH
21 18 15 11 8 7 6 4 3 3 3 4 5 6 10 19 29 33 34 36 39 41 41 40 41 43 46
17 14 9 7 6 5 4 4 4 4 6 11 24 35 36 38 40 41 44 44 42 41 39 40 39 38 38
12 8 7 5 4 4 4 4 5 15 36 40 42 44 47 47 46 47 47 44 43 39 37 36 37 37 39
7 5 4 4 5 5 4 8 27 42 45 43 48 46 48 48 49 49 47 46 47 43 40 43 44 43 43
4 4 4 6 6 5 16 34 38 45 44 38 47 47 54 55 54 51 55 54 53 50 48 50 48 50 50
5 6 7 7 7 30 40 38 33 45 41 36 47 43 50 51 50 53 57 57 62 62 56 57 57 56 57
7 8 7 15 43 45 43 46 43 48 52 42 60 52 58 56 60 64 66 67 69 64 52 57 58 54 62
8 8 21 48 48 47 52 47 46 58 72 53 65 58 60 59 68 67 68 72 79 76 59 54 54 57 67
11 39 58 59 65 60 58 57 56 58 73 75 62 57 56 52 62 65 69 73 75 77 68 64 59 57 63
53 62 64 67 68 68 74 75 74 58 78 75 65 74 49 46 51 60 66 72 74 74 69 65 60 58 51
53 60 63 65 69 81 91 89 82 77 94 94 71 81 84 63 57 66 70 71 74 68 70 70 66 64 54
56 61 64 72 80 86 89 92 91 93 90 99 89 91 87 76 69 69 74 80 79 73 73 73 74 73 69
57 64 68 72 78 83 85 89 84 96 97 97 97 96 93 86 83 73 77 73 82 78 76 71 67 70 71
60 65 72 78 84 87 82 84 78 80 94 98 96 97 92 90 89 77 84 89 86 88 79 68 69 69 68
67 72 76 79 84 90 91 89 86 84 78 90 98 98 96 97 90 92 97 93 84 80 79 72 75 82 82
74 74 76 82 82 87 90 90 89 88 88 93 90 84 84 85 98 92 81 77 75 77 83 82 69 87 93
70 73 76 80 84 84 87 91 87 90 92 97 90 94 86 72 79 98 95 98 92 83 85 85 81 77 89

GFSFLT2_700_rhum_027.txt.gz
RH
28 20 22 21 16 12 9 7 5 3 3 3 3 3 4 8 17 26 31 33 31 32 34 34 33 35 34
21 23 20 14 9 7 5 3 3 4 4 4 6 20 33 35 36 37 36 36 36 36 36 39 39 37 35
22 17 12 8 5 3 3 4 4 5 9 25 38 41 38 35 36 34 35 35 36 37 38 38 37 37 36
13 9 6 4 3 4 4 5 5 16 39 38 36 38 42 44 39 37 37 38 40 42 43 41 38 38 41
7 4 3 4 5 6 6 5 22 35 36 33 38 42 49 48 46 46 46 47 49 48 43 40 39 37 40
3 4 5 6 6 6 10 30 25 36 39 32 44 48 52 51 54 55 59 63 60 54 52 51 48 42 44
5 6 6 7 7 21 34 32 36 38 43 36 56 50 55 56 61 62 65 64 61 59 58 59 59 52 48
6 7 8 12 33 31 34 36 38 50 68 53 62 56 57 58 63 66 70 71 70 70 68 66 66 61 52
8 8 25 40 44 43 49 50 52 58 67 79 66 58 57 51 55 61 69 72 74 71 71 72 74 66 55
12 42 46 49 55 60 64 64 70 60 72 78 70 74 52 46 47 54 67 76 81 82 80 77 73 64 58
38 43 50 54 61 70 75 77 80 79 88 93 78 80 81 60 52 63 73 80 86 83 83 82 79 72 64
40 47 50 59 66 74 79 84 84 86 92 98 86 91 90 78 72 71 80 85 86 80 80 80 82 79 73
45 52 58 64 72 75 78 80 75 85 96 100 97 92 88 84 82 76 82 78 93 90 86 81 78 83 83
51 55 60 63 70 74 70 70 67 73 87 99 97 94 90 91 90 81 90 86 86 94 83 73 74 75 75
60 58 61 61 66 71 71 72 74 76 72 87 98 100 97 98 95 98 98 90 90 85 85 78 80 86 91
63 61 60 64 66 70 70 75 76 80 83 88 88 86 83 84 96 93 83 78 81 80 85 81 65 82 95
60 63 64 68 64 69 73 74 73 80 85 91 84 89 88 80 82 98 96 93 94 85 84 84 78 73 82

GFSFLT2_700_rhum_030.txt.gz
RH
84 86 55 22 23 20 14 10 7 4 3 3 3 3 3 3 4 5 13 22 28 29 30 30 32 34 35
83 35 22 22 16 10 8 4 3 3 4 4 4 4 5 12 25 29 27 26 26 27 28 31 33 34 35
23 23 19 12 8 5 4 3 4 4 5 5 9 24 30 30 30 29 29 30 29 29 28 30 33 35 35
22 15 9 6 4 4 3 3 4 5 12 26 27 28 38 38 32 33 38 41 41 41 40 40 39 38 35
10 7 4 4 4 3 3 4 5 22 23 26 33 35 41 44 51 57 56 55 55 54 52 50 48 47 45
6 4 4 4 4 4 4 7 15 26 22 24 34 40 48 50 52 54 60 63 62 59 54 52 51 53 52
4 4 4 4 4 5 13 21 22 32 32 26 46 45 52 52 59 65 70 69 65 62 57 52 52 55 58
5 4 5 5 6 16 19 22 27 41 48 40 55 50 53 55 61 63 67 69 68 68 66 62 61 61 60
5 6 7 10 26 24 32 33 36 45 56 67 55 51 49 49 56 57 60 65 68 70 72 72 70 70 69
7 10 18 32 36 39 42 45 52 44 68 69 61 63 44 44 49 61 69 76 82 84 83 78 78 74 68
11 34 38 41 47 53 55 60 61 65 84 84 68 72 68 58 53 65 72 77 79 76 80 82 79 77 71
37 40 44 51 56 57 63 67 64 74 81 92 84 85 80 73 66 66 74 78 81 76 77 79 82 86 82
43 47 52 53 56 57 64 64 66 78 87 95 91 84 79 75 79 76 82 73 85 87 82 77 77 82 84
51 53 52 56 59 58 60 63 64 70 80 85 85 82 80 82 90 90 94 90 91 88 84 75 78 82 83
53 51 55 60 64 60 60 60 65 64 64 73 80 83 84 81 87 99 96 87 82 81 83 77 78 91 93
56 56 60 64 63 60 58 67 69 68 69 73 73 71 69 72 93 85 89 83 78 76 81 80 68 81 93
57 63 65 68 69 63 68 69 59 55 56 62 66 72 70 71 75 98 93 98 97 85 86 88 79 77 83

GFSFLT2_700_rhum_033.txt.gz
RH
98 98 97 88 88 46 23 24 16 10 6 4 4 3 2 2 2 3 4 7 11 15 18 20 22 22 23
98 98 97 88 32 24 20 12 7 5 4 3 2 2 3 5 11 12 11 14 17 18 21 23 24 26 27
98 97 52 22 23 14 8 6 4 3 3 3 3 7 16 17 15 15 17 19 20 23 27 31 34 34 35
96 49 22 18 11 7 6 4 3 3 3 7 16 18 24 22 23 24 26 29 33 37 38 38 38 38 39
22 19 11 8 6 5 4 3 3 5 15 20 25 34 38 37 39 41 42 44 45 45 47 47 46 46 44
13 9 7 6 5 4 4 3 3 24 20 23 34 38 37 40 44 46 51 52 54 54 52 50 49 48 46
7 6 5 5 4 4 3 5 16 30 28 19 33 30 40 42 48 51 54 57 60 60 57 52 48 47 47
6 6 5 5 4 4 9 18 23 35 32 17 39 33 40 42 48 53 58 63 64 64 61 59 56 55 54
6 6 5 4 6 11 27 29 29 36 40 30 35 34 38 43 53 59 65 64 64 67 67 68 66 66 64
6 5 5 8 26 33 34 35 33 33 45 32 39 41 31 37 41 52 63 70 75 77 75 76 75 72 66
6 9 22 43 44 44 43 40 38 48 56 50 45 52 46 43 42 51 58 70 74 74 72 76 78 78 73
24 45 47 48 51 46 48 46 46 54 64 61 52 58 54 50 50 54 69 73 71 74 76 75 77 82 80
46 48 50 51 51 52 53 48 51 60 72 81 76 70 64 58 54 53 72 78 84 79 78 71 70 73 74
50 52 52 52 54 54 55 45 49 62 75 78 68 58 53 56 59 57 73 91 91 85 78 72 73 80 84
46 47 48 51 57 58 58 54 56 52 48 55 57 56 60 63 66 69 69 83 78 70 74 73 76 82 85
47 47 51 56 58 61 58 51 47 48 49 58 67 64 47 40 65 62 75 71 70 73 79 74 65 85 91
48 50 54 56 55 52 54 60 56 54 59 76 73 51 44 39 42 89 93 82 80 76 81 80 72 74 78

GFSFLT2_700_rhum_036.txt.gz
RH
99 99 100 100 98 98 97 94 90 80 32 23 14 10 7 5 3 3 2 2 2 4 6 7 7 8 9
99 99 99 98 96 96 97 93 74 24 17 10 7 5 4 3 3 2 3 5 6 8 10 12 13 14 15
98 98 98 98 97 96 96 56 19 11 7 5 5 4 3 2 4 6 8 13 15 15 17 20 23 25 28
100 98 97 98 97 76 22 12 8 6 5 4 3 3 7 10 12 17 19 17 17 21 25 27 30 31 32
97 95 97 77 21 14 9 7 6 5 4 4 6 15 17 20 22 22 22 24 28 32 34 37 38 39 38
97 40 21 14 8 7 6 6 6 5 5 9 24 25 28 28 30 31 30 31 36 37 38 37 38 36 36
18 12 9 8 8 7 6 6 5 8 14 20 36 26 29 31 34 36 37 41 43 44 44 44 42 41 40
9 9 9 8 8 7 6 5 7 31 36 25 38 26 27 34 40 44 48 53 56 56 54 52 50 50 50
10 9 8 7 6 5 7 20 30 42 43 32 38 29 31 37 40 43 49 54 56 59 59 59 59 59 57
6 6 6 5 6 16 32 37 42 41 38 31 36 35 27 36 38 42 43 48 50 54 58 65 71 68 63
5 4 7 18 29 33 41 45 46 48 42 32 41 49 45 36 38 42 46 48 43 50 64 70 72 71 68
14 22 28 32 39 44 47 48 52 52 47 47 48 55 50 42 39 42 50 53 53 54 66 74 73 74 79
28 35 40 46 48 49 53 54 54 55 58 66 62 53 47 46 47 50 39 33 58 62 70 68 65 68 70
38 41 44 46 47 48 54 58 60 63 55 55 55 52 52 62 63 46 40 39 44 68 71 67 69 74 81
39 42 44 46 51 56 58 58 49 50 55 60 64 62 64 66 51 38 43 38 46 64 66 64 70 77 87
43 44 47 50 55 58 55 51 56 62 64 65 64 60 61 50 29 28 39 44 65 71 77 71 61 74 81
50 50 50 52 54 55 52 57 63 66 64 68 67 66 59 37 20 39 55 52 73 84 84 76 64 69 81

GFSFLT2_700_rhum_039.txt.gz
RH
100 99 100 100 99 98 99 99 97 98 98 99 97 97 90 47 22 14 8 6 6 5 4 3 4 4 5
98 99 100 98 99 98 95 93 94 96 96 98 97 75 28 15 10 7 6 6 4 3 4 5 8 11 12
97 99 98 99 98 96 90 91 95 98 98 86 26 13 8 7 7 7 5 4 5 6 11 13 13 14 17
98 98 95 97 98 96 95 100 96 48 15 11 8 7 7 7 6 5 6 10 15 16 14 13 18 23 22
98 95 98 100 100 100 89 36 18 10 9 8 8 8 7 5 7 13 20 20 16 14 16 22 26 27 27
97 98 100 97 50 20 14 11 11 9 10 8 6 5 7 18 28 27 21 18 18 23 29 33 35 36 36
100 58 23 14 11 11 11 11 9 7 6 5 12 18 31 33 28 24 24 26 29 34 38 40 41 41 42
18 13 12 12 11 8 6 6 6 7 15 17 37 32 31 29 29 29 30 32 35 38 38 37 38 39 44
13 10 6 5 5 5 5 5 16 27 39 33 37 31 27 31 38 40 40 41 42 44 44 47 47 47 46
4 4 4 4 4 10 19 22 31 36 38 37 40 34 27 34 37 37 36 39 41 40 41 45 48 47 50
4 4 7 13 17 22 29 34 38 43 46 39 43 41 37 32 33 38 39 44 46 42 33 30 38 42 52
10 14 20 25 29 33 35 38 41 47 53 50 46 45 40 38 37 41 50 51 44 33 32 30 36 48 62
20 26 28 31 34 36 39 41 46 53 56 56 51 54 52 47 43 47 49 33 23 30 35 32 46 66 63
28 31 34 37 39 40 43 47 50 56 54 53 66 64 56 54 51 50 54 30 22 36 39 38 67 78 75
36 38 41 41 43 45 47 50 51 51 53 66 66 63 60 57 58 60 57 30 34 43 40 34 58 75 77
42 45 46 47 47 50 51 52 53 52 52 62 63 65 61 56 65 55 56 42 34 45 44 44 61 75 76
51 54 57 57 56 56 56 56 56 53 52 58 65 74 64 52 58 67 65 62 41 52 57 58 66 74 78

GFSFLT2_700_rhum_042.txt.gz
RH
99 99 99 98 100 98 100 100 98 90 93 94 92 91 87 89 92 94 98 81 35 16 10 9 8 7 6
98 100 96 97 99 99 100 100 100 99 88 91 92 91 90 95 93 74 34 18 11 9 9 8 7 6 5
99 100 99 99 95 96 100 100 94 97 99 94 92 92 67 24 14 11 10 10 9 8 8 6 6 8 11
96 99 99 99 98 100 100 97 97 97 89 76 34 16 11 10 10 9 10 9 8 7 7 10 14 15 15
92 100 99 100 100 99 96 94 75 26 18 12 11 11 10 10 9 8 7 6 8 14 18 17 16 16 20
98 99 100 99 93 64 24 19 13 11 13 11 9 7 6 5 6 9 15 22 22 19 18 19 22 24 28
98 93 59 26 20 14 13 12 7 5 3 4 4 5 10 21 28 28 25 24 23 22 23 24 25 26 27
24 19 16 14 12 7 4 3 3 4 4 8 14 24 32 35 30 27 30 33 32 32 32 32 32 31 30
15 11 7 3 3 3 3 5 10 15 16 22 26 27 32 34 34 37 39 38 38 38 37 36 36 38 34
3 3 3 3 4 9 13 16 21 26 26 25 31 29 31 38 41 39 37 36 36 37 40 42 43 40 33
3 3 5 10 14 19 22 25 28 29 30 29 38 38 34 29 35 37 38 39 39 45 44 35 24 23 28
4 9 14 21 24 27 29 31 33 35 38 37 38 39 34 34 34 42 46 44 45 45 30 18 18 28 31
11 17 25 28 30 32 35 37 38 41 46 47 44 41 41 43 39 46 45 45 50 48 38 22 26 34 32
22 29 32 36 38 39 40 42 42 47 51 52 48 45 46 48 45 44 51 52 54 54 50 28 31 42 39
32 35 39 43 47 48 49 49 48 49 52 56 56 51 50 53 48 51 51 53 59 58 53 37 26 42 40
38 42 48 53 58 60 60 60 59 58 57 57 56 55 54 52 57 56 51 53 57 58 56 46 23 33 41
46 55 59 63 65 66 66 66 68 69 70 69 68 68 64 58 60 62 60 60 64 62 63 61 35 32 52

GFSFLT2_700_rhum_045.txt.gz
RH
99 100 99 100 96 99 99 99 95 99 98 98 99 100 99 100 98 95 88 83 84 86 86 80 56 29 18
100 100 99 100 100 99 99 99 98 95 100 98 100 99 97 97 92 88 84 80 61 36 21 16 12 10 10
99 100 99 99 99 100 100 96 100 100 98 95 91 93 94 89 81 60 37 22 15 12 12 10 10 10 10
95 98 100 100 100 99 100 99 99 96 88 88 88 69 38 22 16 13 12 11 11 11 11 10 9 8 9
95 99 100 100 100 98 96 95 96 80 43 24 18 13 12 12 12 12 10 8 6 6 6 9 15 19 20
99 100 100 99 98 98 70 29 21 15 15 12 12 9 6 4 4 4 4 7 15 22 22 21 19 17 17
99 100 94 55 24 21 16 14 12 8 4 3 3 3 4 7 11 19 25 26 24 21 20 20 22 22 23
24 21 18 17 14 11 7 4 3 3 3 5 9 16 22 25 26 28 27 25 25 27 28 28 28 28 26
8 8 6 4 4 3 3 3 4 8 12 16 21 26 29 30 31 32 32 31 33 34 34 35 34 32 30
2 3 3 3 3 3 5 11 15 20 22 24 26 26 35 40 38 37 37 36 35 37 38 40 40 40 40
2 3 3 4 5 11 17 22 25 26 28 28 32 31 31 37 37 38 41 42 42 44 43 43 43 40 27
4 4 6 11 16 23 26 28 30 31 34 34 34 36 34 32 32 39 44 44 44 48 50 49 47 45 35
5 10 15 22 27 29 32 33 35 37 38 38 39 39 38 35 32 33 38 42 45 47 51 50 51 50 47
14 18 26 32 35 36 39 41 44 47 47 46 46 46 44 43 41 38 41 40 43 48 50 49 52 52 51
19 29 34 36 40 46 50 53 55 56 58 58 57 56 54 53 49 51 51 49 53 53 53 52 54 56 49
32 37 40 45 52 59 61 63 65 67 68 68 66 63 63 62 64 59 58 61 63 62 61 59 54 54 50
37 39 46 56 59 66 72 72 74 74 77 79 77 76 65 57 67 72 66 73 70 64 66 66 56 47 47

GFSFLT2_700_rhum_048.txt.gz
RH
91 92 98 99 98 96 98 98 98 99 98 98 95 99 99 100 100 98 100 98 98 92 90 89 82 78 70
99 88 98 99 98 98 98 98 98 99 100 97 100 99 100 100 98 90 90 90 89 83 80 68 47 28 18
98 94 95 97 98 99 98 97 100 100 100 99 99 100 97 93 89 88 89 80 66 45 26 19 15 13 12
97 99 99 98 97 98 98 98 99 99 99 100 94 93 94 81 58 35 22 17 14 14 13 13 12 12 12
99 98 100 99 99 100 100 98 98 97 97 94 67 32 21 17 15 14 12 10 7 6 5 4 4 5 6
90 94 99 100 99 99 100 100 91 41 23 18 16 13 11 8 5 3 3 3 4 4 6 10 17 20 20
98 98 97 86 77 66 29 20 16 14 12 10 7 4 3 3 3 5 6 10 15 18 20 21 20 20 21
18 18 17 16 13 12 10 8 7 5 3 3 3 4 8 11 14 16 18 19 20 21 22 24 26 26 26
2 2 3 3 3 3 4 4 3 4 4 7 12 16 19 21 22 22 23 25 28 29 29 28 27 27 30
2 2 2 2 2 3 3 4 4 9 15 18 23 26 27 28 29 30 32 32 32 31 30 31 32 34 35
2 2 3 3 3 4 5 11 17 22 25 26 29 30 30 33 35 36 36 36 37 37 39 41 42 40 41
3 3 3 4 5 10 15 23 28 31 32 31 32 34 34 37 38 45 45 41 43 46 49 49 44 43 44
4 4 5 9 13 19 29 33 36 39 40 41 41 41 40 40 41 42 38 43 45 47 48 48 45 46 47
6 8 12 16 23 31 36 40 43 49 49 50 50 49 49 50 47 47 49 46 46 44 45 45 46 48 51
10 13 16 25 33 38 42 47 53 60 67 68 63 60 59 59 54 56 57 54 56 58 57 52 53 55 55
16 22 29 35 38 44 51 60 62 68 73 77 76 71 70 69 73 67 67 65 70 68 65 58 52 62 60
26 30 33 37 47 58 61 65 73 78 82 87 88 88 76 68 73 81 73 76 71 68 68 64 54 50 51

GFSFLT2_700_rhum_051.txt.gz
RH
73 74 81 91 90 89 93 94 99 100 100 99 97 99 98 98 96 98 99 100 99 100 99 97 94 90 87
76 75 79 93 95 90 95 99 100 100 99 98 98 97 98 99 100 99 99 100 99 97 92 92 93 89 85
77 76 77 87 96 98 96 98 98 97 98 98 100 100 100 99 99 99 99 99 90 88 92 88 77 56 34
72 76 71 83 92 95 95 100 100 100 100 100 100 99 98 95 98 99 96 85 63 37 22 17 15 14 14
68 76 84 96 93 94 99 99 98 97 98 98 96 96 96 93 70 39 23 17 14 11 8 5 4 4 4
55 69 83 89 99 100 93 93 97 96 94 95 77 47 25 18 15 11 7 4 3 3 3 3 3 6 9
6 9 11 14 16 18 20 20 20 23 18 17 15 11 8 5 3 3 3 4 6 8 11 16 19 20 20
3 2 2 2 2 2 3 4 4 5 4 4 4 3 3 3 5 9 12 15 17 18 20 19 20 23 25
3 3 2 2 2 2 2 2 2 3 3 3 3 4 8 13 17 19 20 20 20 21 23 25 28 28 27
3 3 3 3 3 3 3 3 3 3 4 6 13 17 21 24 24 26 27 28 29 30 30 32 31 27 27
3 3 3 3 3 3 4 4 5 9 14 20 24 28 28 31 33 33 34 35 35 36 35 34 29 28 30
5 5 5 5 5 6 7 10 14 22 28 28 30 35 35 36 35 42 40 39 40 41 39 36 33 34 34
7 7 7 7 8 10 14 20 28 34 36 38 39 40 41 43 44 45 43 48 52 53 51 45 41 41 39
10 10 10 11 12 15 23 31 36 40 41 45 50 51 51 54 54 57 60 52 54 54 52 50 49 48 46
15 16 16 19 23 28 33 37 41 51 62 67 65 63 63 63 61 67 70 66 65 64 60 54 55 57 60
22 24 26 28 31 35 40 48 54 61 64 74 80 80 78 77 81 77 77 78 83 76 71 62 55 66 66
25 28 31 36 40 45 49 52 59 76 82 86 90 93 86 75 74 84 89 97 94 88 88 80 64 62 69

GFSFLT2_700_rhum_054.txt.gz
RH
49 53 56 57 64 61 72 80 98 98 96 99 98 97 100 96 98 98 97 97 98 98 98 98 98 97 98
55 64 63 61 68 64 72 76 87 98 97 98 99 100 98 100 98 98 97 96 97 98 99 98 97 99 100
54 58 48 57 68 56 69 69 75 88 94 96 97 98 97 97 97 99 97 97 97 98 100 98 97 97 96
55 60 60 59 62 59 61 69 76 84 95 94 95 94 96 98 98 96 97 98 97 99 94 94 87 67 45
10 10 6 8 14 32 51 51 58 55 68 84 91 97 99 100 99 100 99 100 88 56 31 20 16 14 12
3 3 3 3 3 4 4 6 8 13 19 35 56 83 85 84 76 57 34 20 16 12 8 5 3 3 3
8 7 5 4 3 3 3 2 2 3 3 3 5 7 7 9 11 10 8 5 3 3 3 4 4 6 10
10 7 5 4 3 3 3 3 3 2 2 2 3 3 3 3 3 3 3 4 6 9 12 14 16 18 21
7 4 4 4 3 3 3 3 3 3 3 3 3 3 3 3 4 8 12 15 18 19 20 21 21 22 26
4 4 4 4 4 4 4 4 4 4 4 5 7 9 12 15 17 20 23 23 24 24 25 27 28 29 31
4 4 5 6 6 6 6 6 6 6 8 10 16 21 22 24 30 30 30 31 31 32 32 32 32 33 34
5 7 8 8 8 8 8 8 9 11 14 20 26 30 31 33 35 41 41 39 38 40 39 39 39 38 36
9 10 11 12 12 13 14 15 18 23 29 33 36 38 39 41 42 50 52 56 57 55 50 48 47 45 43
13 14 14 16 18 20 22 24 28 34 35 38 42 46 50 54 54 56 66 62 69 72 72 67 63 62 60
16 16 17 19 22 26 30 35 38 43 52 60 55 55 57 62 64 72 74 73 77 78 76 69 70 75 76
19 19 19 20 24 33 36 40 42 46 51 64 77 81 82 79 84 82 78 78 81 79 81 77 71 79 83
22 21 20 21 26 35 42 49 60 67 74 81 85 84 73 61 63 73 70 83 83 82 82 82 73 75 84

GFSFLT2_700_rhum_057.txt.gz
RH
38 40 45 47 38 40 50 54 64 69 71 80 93 100 98 99 97 96 97 97 97 97 97 97 97 96 94
44 42 47 49 45 49 55 53 60 62 68 80 85 93 95 95 98 97 97 96 97 97 97 97 96 97 97
40 33 43 40 18 20 45 51 52 58 64 71 86 91 94 98 96 96 97 97 98 98 96 95 95 97 97
10 5 5 4 4 4 6 9 14 18 22 24 42 72 78 81 83 89 94 99 98 94 94 96 96 98 100
5 6 6 7 7 7 6 5 4 4 4 5 9 15 24 58 85 89 91 94 96 98 97 98 94 80 59
9 10 12 12 12 10 6 5 4 4 3 3 3 3 4 6 11 28 45 52 53 42 33 25 19 15 13
17 18 17 14 8 6 6 4 3 3 3 3 3 2 2 2 2 3 4 5 6 7 6 5 4 3 3
21 17 10 6 6 5 4 3 3 3 4 3 3 3 3 3 3 2 2 3 3 3 3 4 6 8 10
17 9 7 6 4 4 4 4 5 5 5 5 5 5 5 5 5 6 6 6 10 13 15 18 19 20 21
8 7 6 5 4 5 5 5 6 6 6 6 6 7 8 10 14 16 17 19 21 23 24 25 25 25 26
7 6 5 5 6 7 7 7 8 8 8 9 10 11 14 20 26 26 27 29 30 31 31 31 30 30 32
7 6 6 7 8 8 9 10 10 11 11 14 17 20 23 28 33 40 44 43 38 38 39 40 39 37 36
8 8 9 9 10 11 12 13 14 14 17 20 24 28 30 31 34 40 51 58 60 60 54 50 50 50 47
10 11 12 13 14 14 14 15 17 18 20 24 31 38 43 46 47 51 60 55 63 69 72 73 71 65 59
12 13 15 17 17 17 17 17 20 27 34 33 31 43 53 55 58 68 72 72 76 75 72 71 72 77 80
16 17 19 21 20 20 19 19 22 30 39 45 47 52 62 60 58 61 56 62 70 65 62 57 56 64 70
19 20 23 24 23 22 21 22 26 31 39 46 52 55 50 47 47 58 65 76 73 71 71 68 55 58 57

GFSFLT2_700_rhum_060.txt.gz
RH
32 43 47 44 45 45 42 42 46 45 52 54 58 66 75 87 99 100 98 96 96 96 95 95 94 95 98
43 44 44 43 47 36 11 20 38 46 48 51 50 53 65 74 85 91 92 92 93 96 97 96 95 95 96
49 44 10 5 5 4 4 5 7 13 18 20 12 12 29 65 76 83 86 92 92 93 90 86 93 95 95
19 7 5 6 6 6 6 7 7 7 6 5 5 5 7 12 29 62 77 82 87 89 92 95 96 94 95
7 8 8 10 11 12 13 12 10 7 6 5 5 4 4 3 4 4 8 26 53 76 89 92 93 92 93
12 13 15 16 17 16 14 10 9 6 6 4 3 3 3 3 2 2 2 2 3 4 11 19 32 40 38
22 22 22 21 17 12 9 7 6 4 3 3 4 4 4 4 3 3 3 3 2 2 2 3 4 4 5
26 24 21 16 10 8 7 5 4 4 4 6 6 6 6 6 5 4 4 4 4 3 3 3 3 3 3
24 20 15 9 8 7 5 4 4 5 6 7 8 8 8 7 6 5 5 6 7 7 8 11 12 13 14
20 15 11 9 7 6 5 5 6 6 8 10 10 10 9 9 8 8 9 11 13 15 17 19 21 22 22
17 13 10 8 7 7 7 7 8 8 10 11 11 11 12 13 14 13 16 18 23 26 26 27 28 29 30
13 12 10 10 10 10 10 10 11 11 12 12 12 13 15 19 21 23 25 28 31 31 32 37 37 36 37
12 12 12 12 14 13 13 14 13 13 13 14 14 15 18 23 28 31 34 42 46 46 42 40 39 42 47
13 14 14 16 16 16 17 17 17 16 16 15 16 17 21 28 34 39 44 47 53 56 59 63 59 59 58
18 19 19 19 19 20 21 20 20 19 18 16 16 17 21 28 31 39 43 52 60 62 64 64 68 73 69
28 25 25 23 23 23 24 23 22 21 20 19 20 22 25 30 36 41 42 49 53 53 54 50 51 66 59
53 47 34 27 26 27 27 26 25 23 23 24 26 28 27 29 34 35 43 59 57 53 62 65 51 60 58

GFSFLT2_700_rhum_063.txt.gz
RH
29 38 41 37 43 40 45 46 28 32 39 42 45 48 47 46 56 68 80 92 100 100 99 99 98 98 98
35 43 42 47 15 21 19 6 5 6 8 10 13 17 12 12 29 58 69 74 80 83 84 88 94 94 96
48 48 46 13 5 5 6 6 7 7 7 7 8 7 6 6 6 15 41 64 75 78 85 91 89 88 87
22 11 7 6 8 9 10 10 11 12 12 11 9 7 6 5 5 4 5 8 28 58 74 79 81 85 88
10 10 11 11 12 14 15 16 16 15 12 10 8 7 6 4 3 3 3 3 3 3 4 12 36 62 83
19 20 20 20 22 22 20 18 15 10 9 8 6 4 3 3 4 4 4 4 4 3 3 3 3 4 10
27 27 26 25 24 22 18 12 10 10 7 5 4 4 6 7 7 7 7 7 6 5 4 3 3 3 3
30 29 27 25 22 16 10 9 9 7 5 5 5 6 8 9 10 10 10 9 7 6 5 4 4 4 4
31 28 24 20 16 11 9 8 7 6 5 5 6 8 11 12 13 13 12 10 8 6 6 6 7 8 9
28 24 21 18 14 11 9 7 7 7 8 8 9 11 13 14 16 15 13 11 9 9 10 11 13 14 16
25 20 18 16 12 11 12 12 12 11 12 12 12 13 14 15 16 15 14 13 12 14 17 19 21 22 25
29 20 17 14 13 13 15 16 16 16 16 16 16 16 16 16 15 15 14 14 15 17 21 25 27 30 32
33 23 17 15 14 16 19 20 21 21 22 21 20 20 18 17 16 16 16 19 18 21 27 35 38 37 39
45 36 26 22 22 23 25 27 26 25 23 23 23 22 19 17 16 18 20 19 24 26 29 39 46 50 53
50 48 46 40 36 34 33 30 28 26 26 25 25 23 20 19 19 22 23 24 28 34 35 37 43 46 48
62 52 50 54 55 47 38 32 29 28 28 28 27 24 21 22 24 26 26 28 32 32 33 34 36 42 48
77 72 67 66 70 71 52 39 33 32 31 30 28 24 22 21 24 26 29 33 32 32 33 35 34 38 46

GFSFLT2_700_rhum_066.txt.gz
RH
22 21 27 32 40 39 39 38 43 22 9 14 20 23 24 22 14 16 24 40 56 69 72 80 93 100 100
28 38 41 42 39 41 8 6 6 5 6 6 6 7 6 7 7 6 6 12 36 66 82 88 99 100 100
38 42 44 42 30 8 5 7 9 9 9 10 10 10 11 10 8 6 6 6 8 16 44 70 83 94 88
6 8 8 7 7 8 10 11 12 13 14 14 14 13 12 10 8 6 5 4 4 4 5 12 30 50 69
14 15 16 16 17 17 18 20 20 20 18 16 12 10 9 7 5 4 3 4 4 4 3 3 3 3 5
22 23 25 26 26 25 25 24 23 19 14 12 10 8 6 4 4 5 6 7 7 7 7 7 6 4 4
28 28 27 28 28 26 25 23 20 14 11 10 8 6 5 5 6 8 9 10 10 10 10 9 7 6 5
32 31 30 29 28 25 22 18 15 13 12 9 7 5 5 6 9 11 14 15 16 15 14 12 10 8 6
33 31 29 27 25 22 19 16 14 12 9 8 7 8 8 10 12 14 17 19 20 20 18 15 12 9 8
35 33 28 24 22 19 16 14 14 13 14 15 14 15 16 16 17 19 20 21 21 21 20 16 12 10 11
42 42 35 27 21 18 15 14 15 17 20 22 23 24 24 22 22 25 24 24 23 20 17 13 11 12 15
47 49 44 35 26 20 16 16 18 22 25 28 29 29 27 25 26 26 24 24 23 18 15 13 12 14 18
47 52 52 47 38 29 24 23 25 28 32 33 30 28 28 28 29 25 24 22 20 17 16 15 16 19 23
50 54 56 53 48 46 39 36 32 34 36 34 34 30 29 30 30 25 23 22 20 19 18 18 21 24 27
52 55 68 70 60 53 52 54 54 50 45 40 36 30 30 31 31 27 26 25 24 21 20 20 23 26 30
55 60 79 83 77 75 74 72 75 74 57 44 38 34 33 32 33 31 27 24 25 24 25 25 26 29 30
58 66 79 90 89 87 81 82 84 75 62 51 42 36 36 38 33 29 27 27 26 28 30 31 32 35 37

GFSFLT2_700_rhum_069.txt.gz
RH
36 26 22 20 26 32 37 40 34 35 14 6 6 8 13 12 17 14 8 8 16 27 52 62 67 70 77
21 22 33 41 44 41 40 36 6 5 6 7 7 7 7 7 8 9 9 8 7 8 15 28 46 63 72
37 38 37 42 41 31 14 6 7 8 10 11 12 12 12 12 12 11 9 7 7 6 6 10 25 44 60
12 7 7 11 8 9 10 11 12 14 16 17 17 17 17 14 12 10 8 7 5 4 3 3 4 5 13
9 13 15 16 18 19 20 22 22 23 23 22 19 16 13 11 10 7 6 4 4 5 5 5 4 5 5
17 21 23 25 27 27 27 26 26 24 21 20 14 12 12 9 7 5 5 6 8 8 9 9 9 9 8
26 29 28 29 30 30 29 27 25 21 18 14 13 12 9 7 5 5 7 9 11 13 14 15 15 15 14
31 34 33 32 31 29 26 24 21 18 16 14 12 11 8 7 6 7 9 12 14 17 20 21 22 21 20
36 36 34 31 28 26 24 22 21 18 15 14 13 13 12 11 12 14 16 18 20 23 24 25 25 24 23
40 41 40 38 35 30 25 22 19 19 16 17 17 19 20 21 22 24 24 25 26 27 28 28 27 25 22
40 38 43 46 45 39 30 23 18 18 17 18 21 25 28 28 30 29 28 30 31 31 30 29 28 25 21
37 39 45 50 52 49 40 32 26 22 22 23 26 31 33 31 32 31 32 34 34 34 33 30 27 24 21
39 42 46 52 55 55 52 48 43 40 36 33 34 36 39 35 34 31 32 34 37 36 30 27 25 24 20
43 47 53 56 59 67 68 61 55 52 50 51 50 51 50 45 39 32 33 36 35 32 30 27 26 22 19
65 80 50 56 61 76 81 80 72 67 67 66 66 66 59 50 41 36 37 37 36 34 32 28 24 24 23
92 60 49 57 64 74 86 88 88 85 81 82 83 72 60 52 48 43 39 38 36 34 31 30 27 26 27
96 79 64 66 68 72 85 89 90 86 86 87 86 85 78 64 52 43 41 40 38 35 32 29 29 29 31

GFSFLT2_700_rhum_072.txt.gz
RH
60 83 88 70 28 28 29 34 39 39 31 14 6 6 7 10 14 15 25 17 13 14 22 35 47 62 71
30 32 31 28 31 44 44 42 43 20 5 6 8 9 9 8 8 8 9 9 9 8 8 9 18 36 56
27 26 28 42 38 42 39 28 13 6 8 9 11 12 12 13 13 13 13 13 12 9 8 7 7 7 10
26 36 36 16 12 9 8 9 10 12 14 16 18 19 19 18 17 15 13 12 10 8 6 6 4 3 4
46 18 7 8 13 15 18 19 21 23 24 24 24 22 20 16 13 12 11 8 6 4 4 4 5 6 5
6 8 14 18 22 25 26 27 27 26 26 24 22 19 15 13 13 11 9 6 5 6 8 9 9 10 10
14 20 25 29 30 30 30 30 29 27 25 22 19 15 13 12 10 8 6 6 6 8 10 12 14 15 16
26 30 31 34 34 33 31 29 26 24 22 20 18 16 14 12 10 8 7 7 9 11 13 16 18 21 23
32 35 36 36 34 32 30 26 22 21 20 19 16 15 15 14 13 12 12 14 15 18 20 23 24 26 27
37 38 40 41 40 40 37 32 26 22 20 18 16 17 18 19 21 23 24 25 26 27 28 29 30 30 31
38 41 41 39 44 47 46 42 35 28 24 19 18 18 20 22 26 30 31 32 33 33 33 34 35 35 34
36 39 39 40 44 50 52 52 49 44 38 32 25 26 25 27 31 35 38 38 38 37 37 38 38 37 33
36 38 41 42 46 52 56 58 59 59 55 50 47 44 41 38 40 42 43 46 43 38 40 40 40 38 34
37 39 44 48 53 75 63 62 72 77 73 69 64 59 56 56 56 53 52 47 43 40 42 41 41 40 36
40 66 67 68 95 76 56 60 71 82 82 81 81 80 79 78 77 70 62 51 44 43 43 43 42 41 37
95 96 96 96 95 93 62 60 68 75 86 85 85 83 80 78 75 71 67 60 52 47 48 50 47 40 39
97 98 95 98 96 95 92 84 80 88 92 92 91 88 85 84 85 82 83 63 55 49 52 56 56 46 39

GFSFLT2_700_rhum_075.txt.gz
RH
39 51 57 98 88 65 76 33 33 39 40 36 27 7 6 7 12 19 18 35 41 28 24 35 42 51 67
52 63 72 50 60 40 35 42 50 46 42 13 5 7 8 9 9 8 8 9 10 10 8 8 12 20 25
57 57 44 36 35 35 45 51 47 41 20 6 7 9 11 12 13 13 12 12 12 12 11 10 8 8 10
56 40 33 30 38 43 39 15 9 8 9 11 13 16 18 19 19 19 18 16 15 13 11 10 8 7 7
38 34 35 47 38 9 9 12 15 18 20 22 23 24 24 23 21 19 15 13 12 10 9 7 6 4 4
44 56 52 9 8 14 19 24 26 27 26 26 26 25 23 21 18 15 13 12 10 8 6 5 5 6 7
34 9 8 14 20 26 29 30 31 30 29 28 26 24 20 17 15 14 13 11 8 6 6 7 8 10 10
12 18 23 29 31 33 34 34 32 30 27 25 23 21 18 16 15 14 12 10 8 7 7 9 11 13 15
29 31 33 35 37 37 34 32 30 28 25 22 22 19 18 16 15 15 14 12 12 12 12 14 16 18 22
35 34 36 38 38 40 40 38 38 36 31 26 22 18 17 17 18 20 21 22 23 24 24 25 27 28 29
37 38 39 42 43 41 41 45 46 42 37 31 26 22 20 19 20 22 24 28 31 33 34 36 35 35 36
36 37 40 41 41 41 44 49 51 51 47 46 49 42 34 30 28 29 30 32 36 40 42 45 42 41 41
35 35 36 38 42 44 46 50 54 58 78 83 63 60 56 50 49 49 49 48 48 49 50 50 47 46 43
37 37 38 40 42 50 80 93 95 95 85 78 79 79 76 72 69 64 61 60 58 56 57 55 50 46 46
48 50 52 47 66 92 96 96 96 89 69 71 78 84 86 86 85 84 81 79 76 72 66 54 48 48 47
58 68 86 95 98 95 95 96 98 96 93 90 88 90 94 95 94 92 85 80 75 71 67 64 54 49 50
96 98 97 95 95 97 96 96 96 95 95 95 93 94 92 90 96 95 95 95 86 83 83 79 65 51 54

GFSFLT2_700_rhum_078.txt.gz
RH
46 43 46 50 76 71 99 95 89 93 58 40 41 41 29 6 8 18 28 26 31 34 40 42 45 61 96
49 50 54 60 82 93 65 93 70 38 47 49 45 21 6 7 8 8 9 10 10 20 21 18 22 39 51
55 58 59 67 66 76 42 45 42 53 53 50 37 6 7 9 11 12 12 11 10 10 10 10 10 11 19
62 63 64 64 50 44 36 40 48 23 11 8 8 9 12 14 16 17 17 16 16 14 14 12 11 9 9
64 64 60 49 40 38 46 32 13 11 13 16 18 21 23 24 24 23 22 20 18 16 14 12 10 9 8
64 53 43 40 51 53 16 8 14 20 24 26 27 26 26 25 24 22 19 16 14 13 12 10 7 6 5
50 52 60 42 17 9 15 22 28 30 30 30 29 28 27 24 21 18 16 14 13 13 11 8 6 6 6
47 18 10 12 19 26 31 33 34 34 33 30 28 26 23 21 19 17 16 15 13 12 9 7 6 7 8
11 19 28 31 32 35 37 37 35 32 28 26 25 22 20 20 18 17 16 15 15 13 11 9 10 10 11
28 51 60 43 38 38 37 38 37 36 35 33 29 23 21 20 18 18 18 19 20 20 21 21 21 22 23
51 41 38 39 40 42 43 43 43 44 41 36 30 27 26 39 44 22 20 21 22 24 27 30 32 34 35
61 58 42 39 42 41 42 43 45 49 51 48 42 37 75 70 36 34 34 32 33 32 32 35 39 42 43
38 36 36 39 69 42 42 43 46 58 92 95 96 96 95 71 64 61 58 57 56 52 49 50 50 49 48
38 38 38 38 37 38 40 51 80 87 94 98 96 94 94 90 84 81 80 78 77 77 74 69 64 58 56
45 48 60 68 68 66 60 68 90 91 90 95 96 95 93 93 93 94 93 92 87 83 81 81 80 76 70
49 52 79 81 82 88 94 95 97 95 95 96 97 96 96 96 95 96 95 95 93 91 90 88 81 75 71
44 66 91 95 95 97 96 94 94 94 94 93 93 96 96 97 95 96 94 92 90 89 88 87 91 89 92

GFSFLT2_700_rhum_081.txt.gz
RH
38 38 42 45 45 49 52 94 98 100 99 99 95 74 42 41 35 8 27 38 39 37 33 35 36 36 79
38 39 40 46 51 52 60 80 92 78 100 92 48 56 50 38 8 6 8 20 26 32 35 42 46 45 45
41 43 49 56 58 58 64 76 97 50 49 48 58 57 52 8 7 9 10 10 10 12 27 40 31 36 44
43 45 54 61 63 65 65 53 46 44 51 42 23 20 8 7 10 12 13 14 14 13 11 11 11 13 13
44 51 61 67 66 63 54 45 42 51 47 18 10 11 14 16 18 20 22 22 21 19 17 14 13 12 11
51 61 70 66 55 42 41 51 57 21 9 13 18 22 24 25 26 25 24 22 20 17 15 13 11 10 10
70 73 64 54 58 59 49 18 10 14 22 28 29 29 28 28 26 25 21 18 15 13 12 12 10 8 7
71 61 53 33 15 10 15 23 26 31 33 33 32 31 28 26 23 20 17 14 13 12 12 11 9 7 6
57 26 12 18 26 32 34 34 36 36 33 28 27 25 23 20 18 17 16 14 14 13 12 11 9 8 8
16 27 43 59 50 39 43 38 36 47 54 36 32 27 24 18 17 17 16 16 17 18 18 17 15 14 14
42 43 39 45 43 55 55 42 44 64 49 43 42 42 31 22 19 29 55 63 45 23 22 23 24 25 27
57 57 54 56 53 40 43 43 43 43 44 48 51 78 88 56 70 96 82 39 32 31 30 29 29 30 33
48 49 50 41 37 42 60 58 42 44 48 56 81 81 88 94 96 92 67 59 58 56 55 52 50 47 45
42 39 38 38 40 46 48 39 43 50 66 75 81 88 95 95 93 94 89 82 80 78 78 77 75 73 69
40 41 41 46 52 55 55 58 59 62 77 91 92 93 94 92 93 93 93 96 94 92 90 92 90 85 81
41 64 71 50 57 76 86 89 94 94 93 92 93 93 94 95 92 95 94 93 89 86 85 86 91 91 89
68 82 44 41 57 84 97 97 97 96 95 93 94 94 93 94 93 93 95 94 91 89 86 83 85 89 88

GFSFLT2_700_rhum_084.txt.gz
RH
34 37 39 38 40 44 47 48 50 55 85 98 100 100 98 97 84 41 45 16 33 42 41 41 40 33 35
37 39 38 40 42 43 48 52 58 62 73 91 74 82 68 48 53 48 17 9 35 44 43 42 38 38 67
41 42 42 41 43 45 52 59 62 72 72 70 57 47 54 63 53 26 7 8 11 26 32 41 44 49 48
44 41 42 42 44 51 62 67 65 66 57 49 44 55 48 59 38 8 9 10 11 11 12 19 44 49 48
40 40 39 41 48 62 67 67 63 53 47 44 54 26 11 9 8 10 12 15 16 16 14 13 12 17 25
37 34 38 52 67 69 64 52 46 45 48 51 24 12 12 16 19 21 23 24 24 23 21 18 16 14 12
53 53 60 69 69 59 54 60 62 45 18 11 15 21 25 27 27 27 26 25 23 20 18 15 13 12 11
58 63 68 63 56 44 24 12 13 19 26 29 29 31 32 31 29 26 24 22 18 15 13 11 10 10 9
63 68 60 40 16 13 19 28 35 35 35 35 33 32 28 26 23 21 19 16 14 13 13 12 11 10 8
62 51 22 16 35 42 38 40 41 39 37 48 53 36 31 28 26 20 17 15 14 15 15 15 14 13 12
34 26 41 42 43 50 45 54 55 48 55 69 50 42 40 50 56 27 20 21 24 26 25 21 20 21 21
37 38 48 48 46 50 49 47 44 43 49 45 45 46 55 78 83 77 41 84 92 94 92 86 62 38 26
27 38 58 59 59 49 39 47 62 55 53 45 48 58 65 75 78 83 92 92 90 72 47 44 46 45 42
55 46 41 39 38 38 38 39 41 41 43 47 55 65 73 82 86 89 92 92 92 88 80 75 73 71 70
46 40 43 41 39 41 51 53 53 53 56 60 64 80 91 91 92 91 90 89 88 89 90 90 89 87 86
57 37 39 41 47 52 47 59 70 85 89 91 95 92 92 90 92 93 92 91 88 85 83 83 85 84 82
31 37 40 49 77 67 52 54 69 92 92 93 94 92 89 89 87 87 90 89 85 83 82 82 81 83 83

GFSFLT2_700_rhum_087.txt.gz
RH
35 34 34 35 37 37 37 38 38 42 44 48 53 89 91 100 99 96 77 56 41 39 26 40 41 40 39
31 33 36 39 41 41 42 44 44 46 50 54 60 63 68 75 57 54 47 54 43 10 37 43 45 43 39
35 38 43 45 42 38 40 41 43 46 56 61 64 60 62 49 45 57 58 48 8 11 34 44 47 45 38
38 38 40 40 39 39 38 42 51 60 64 64 65 53 47 48 52 60 53 10 8 10 13 28 43 44 46
42 41 42 40 38 36 38 44 58 63 66 62 52 41 45 45 13 13 10 9 10 12 12 12 16 38 49
41 40 43 47 51 51 50 60 63 61 54 43 41 48 49 17 12 14 15 17 18 19 20 18 16 13 15
43 46 44 51 53 60 62 62 55 56 55 53 46 16 12 18 24 26 26 26 25 25 24 23 21 19 16
45 41 47 52 64 66 60 52 37 24 17 14 18 25 29 33 33 34 30 28 27 24 21 18 16 14 14
50 46 50 60 64 55 31 16 13 21 30 33 34 34 33 33 32 28 24 22 21 18 16 14 13 11 11
51 52 56 58 45 21 18 28 33 38 40 40 37 40 37 34 32 28 26 21 18 17 16 15 14 13 12
61 54 53 33 24 41 53 49 44 55 52 46 60 63 46 43 37 68 78 61 26 19 42 41 26 20 19
66 55 41 43 46 47 42 45 48 51 49 43 54 51 49 47 64 70 68 76 52 42 75 73 75 69 56
72 51 36 38 53 53 53 54 50 45 51 48 55 53 46 57 64 66 67 74 80 88 91 93 70 63 68
73 36 34 34 56 58 53 45 39 44 44 41 43 46 51 57 59 66 79 84 86 90 92 90 83 71 66
80 32 59 47 44 40 39 38 38 46 55 55 53 55 59 65 78 84 86 87 87 87 86 86 89 90 90
84 32 62 41 42 43 40 40 47 52 57 66 70 85 86 89 88 87 86 86 86 86 85 86 87 86 84
77 35 70 55 38 40 43 55 64 59 59 58 84 87 86 86 86 86 86 83 81 80 80 79 78 80 77

GFSFLT2_700_rhum_090.txt.gz
RH
48 40 35 33 32 32 33 37 38 38 38 38 38 42 48 46 53 57 57 43 60 69 41 40 37 36 35
40 42 35 33 34 38 41 42 38 36 38 42 42 42 48 50 56 60 51 40 42 50 48 17 29 40 45
35 35 37 35 36 36 38 39 40 40 36 38 40 44 53 56 53 45 38 54 57 53 12 35 50 48 47
37 34 34 37 39 38 38 38 37 36 38 44 49 56 62 59 47 43 47 60 52 12 10 26 40 45 47
37 36 42 42 39 39 39 41 45 43 46 52 58 56 52 46 40 42 15 23 11 9 11 12 18 28 40
40 44 43 41 41 42 41 46 46 54 55 57 53 47 41 42 47 16 11 12 13 14 15 16 15 13 21
47 48 46 44 43 40 43 49 56 59 55 51 52 51 48 28 14 17 24 25 25 25 25 24 23 22 18
51 52 52 49 46 41 41 51 58 54 42 32 22 15 15 19 29 34 33 32 29 28 30 27 24 22 20
57 56 55 52 46 44 52 55 48 24 14 16 25 31 33 33 33 33 32 28 30 25 24 22 19 17 15
61 58 55 53 53 52 51 37 19 20 26 38 40 39 36 36 37 34 27 27 26 20 20 19 16 14 13
65 61 59 60 53 45 29 27 35 40 45 48 44 46 60 56 47 40 56 70 72 48 22 17 20 26 20
71 69 67 65 53 33 40 42 48 48 53 54 54 50 60 54 45 51 66 68 67 72 56 29 55 76 63
79 78 72 71 52 38 45 46 44 48 50 48 44 45 52 51 47 58 61 63 62 63 71 76 65 76 88
86 86 79 76 47 33 50 56 58 56 46 50 57 51 46 48 48 52 56 59 68 79 83 86 89 90 85
92 95 84 80 36 30 44 59 51 44 41 41 43 52 54 55 58 63 71 81 84 84 84 86 86 86 88
96 97 95 88 45 49 46 43 40 39 39 47 55 60 64 63 81 86 87 85 82 81 82 86 87 86 86
92 96 97 94 49 53 42 42 42 41 43 48 52 62 59 71 88 88 85 81 78 78 76 77 81 80 77

GFSFLT2_700_rhum_093.txt.gz
RH
86 75 57 39 34 32 31 31 35 37 35 34 35 35 36 38 39 41 42 46 54 40 38 47 48 29 28
85 75 49 38 36 32 35 35 33 35 36 36 35 35 36 38 40 46 48 46 44 32 34 38 39 35 30
84 75 47 39 37 35 34 38 37 35 34 36 36 36 36 38 42 55 55 46 34 45 56 49 27 19 33
83 73 45 38 36 35 38 37 35 35 36 41 41 37 40 47 53 57 49 37 38 56 39 13 10 36 41
84 54 42 39 37 38 40 39 38 40 41 42 46 50 53 52 51 44 37 37 30 31 10 10 11 14 22
84 48 42 40 40 43 44 43 40 38 44 48 49 53 53 50 43 37 44 13 10 10 10 12 13 13 14
62 48 44 44 47 47 48 46 44 41 43 49 54 51 51 50 49 41 17 16 21 22 21 20 20 20 19
57 51 50 49 52 52 49 47 44 44 52 54 40 30 25 23 15 15 29 34 33 31 28 31 30 26 24
57 54 54 55 56 54 51 48 45 50 49 38 21 16 22 27 29 33 36 36 32 30 27 26 26 24 23
59 57 58 61 58 54 53 52 51 48 33 23 22 32 36 36 35 35 34 31 24 27 23 24 27 20 16
63 63 63 66 62 58 55 53 46 34 28 30 34 41 42 44 47 45 40 34 55 59 54 33 20 16 16
68 68 70 71 69 63 60 50 38 42 44 47 53 54 52 61 62 54 42 60 68 66 64 65 42 24 57
78 76 77 77 73 69 65 43 44 44 44 48 52 53 49 52 55 49 49 58 65 64 60 58 60 64 47
86 82 81 82 82 74 69 44 40 47 46 51 52 48 45 48 54 51 50 55 55 55 61 70 77 78 79
93 90 89 87 85 81 72 52 37 54 57 58 50 51 53 46 45 46 50 55 64 73 83 82 82 82 85
97 99 95 92 90 90 80 55 30 51 59 48 43 42 44 52 59 65 68 84 87 86 85 82 82 84 84
98 97 98 100 96 89 93 79 41 46 46 40 39 41 51 54 62 65 72 89 89 85 81 80 78 77 78

GFSFLT2_700_rhum_096.txt.gz
RH
99 98 89 84 78 63 45 38 34 33 32 32 32 33 32 33 32 34 34 36 38 43 46 46 36 33 37
100 98 96 86 78 60 41 37 35 35 34 36 35 31 30 32 33 34 35 37 39 45 43 34 30 35 38
99 100 95 84 75 61 40 36 36 35 37 38 34 31 30 33 35 35 38 41 47 46 35 36 43 47 35
98 99 97 86 78 62 40 38 35 39 38 36 33 33 33 34 40 40 44 46 46 36 37 49 42 24 15
95 84 87 89 85 63 46 38 38 42 39 37 36 34 33 37 40 45 48 45 36 32 39 35 14 10 18
91 93 98 95 85 49 43 42 42 42 42 41 38 34 38 44 46 49 47 39 36 19 13 10 10 12 13
100 99 100 98 78 51 45 44 46 46 45 42 39 36 46 50 48 47 46 43 25 12 14 13 13 15 16
98 98 100 99 71 53 47 49 51 48 46 42 40 44 48 40 32 36 27 20 19 26 28 26 26 25 24
100 93 100 89 64 52 51 55 54 50 46 43 46 45 34 18 16 16 17 28 37 37 36 34 30 29 26
97 100 93 78 61 56 58 60 56 50 47 45 43 33 22 23 32 34 33 34 35 34 33 37 25 28 24
91 85 84 70 62 64 66 63 58 52 50 46 33 25 29 36 39 39 37 39 38 29 29 31 22 20 24
94 91 80 68 70 68 70 66 59 54 50 37 32 33 38 43 44 52 55 51 40 56 63 66 66 57 30
96 91 77 76 72 71 72 70 64 60 46 43 43 49 53 55 54 58 58 51 47 57 60 67 66 62 61
100 93 83 79 76 75 78 76 70 63 45 45 46 48 52 54 48 52 55 49 53 54 56 55 55 59 63
98 94 89 84 82 79 82 81 77 69 39 43 47 48 51 51 47 49 52 52 49 50 53 59 69 79 80
98 96 96 95 95 88 88 89 87 76 38 43 49 55 56 51 55 50 47 56 62 65 78 84 85 83 83
98 98 98 98 96 89 91 93 93 87 47 33 54 60 53 45 45 45 52 61 64 70 87 88 85 82 80

GFSFLT2_700_rhum_099.txt.gz
RH
100 100 100 99 100 98 86 77 65 50 37 32 30 30 29 31 30 28 27 30 31 32 32 35 40 39 36
100 99 99 100 99 98 89 80 68 46 35 33 31 31 32 31 30 26 28 29 32 35 36 41 42 37 32
93 85 98 100 100 99 90 78 70 46 35 34 33 33 33 32 30 28 28 30 36 40 42 44 38 33 36
100 99 97 99 100 97 86 81 72 48 37 36 34 35 34 32 30 29 30 31 37 42 43 39 34 44 34
100 100 100 89 80 93 88 78 67 46 38 36 38 38 35 34 32 30 34 37 40 44 42 33 34 34 13
100 99 100 94 100 100 98 88 72 47 39 40 41 40 39 36 32 33 39 44 46 44 37 28 24 12 10
99 100 100 100 100 99 100 91 72 49 43 43 43 44 40 36 34 38 44 45 45 42 35 12 10 9 11
99 100 100 99 99 99 99 85 64 48 46 46 46 44 39 36 39 42 42 37 42 38 15 17 21 21 20
96 99 99 97 93 99 89 93 62 50 51 49 47 45 40 41 43 38 27 19 18 20 30 36 36 30 31
94 99 97 99 100 98 93 79 58 52 50 50 49 46 43 42 37 24 22 19 22 34 39 41 35 31 29
99 98 98 98 96 88 87 73 59 54 55 54 52 47 45 37 27 26 31 35 34 34 34 33 32 31 24
97 95 94 98 95 96 87 70 62 60 58 58 54 50 40 31 27 35 39 41 41 42 35 34 46 55 55
100 100 99 99 100 96 82 68 68 64 65 61 57 48 39 32 35 41 45 52 56 54 48 62 66 63 62
100 100 100 98 95 91 77 72 70 70 70 66 61 44 43 42 51 54 54 58 57 51 51 60 60 59 55
97 99 99 96 96 89 80 78 75 75 74 71 61 43 47 48 50 54 52 51 56 51 53 54 52 52 57
90 98 96 100 98 92 86 83 82 85 83 77 66 46 46 46 46 51 49 47 51 51 50 53 62 69 73
97 98 97 98 98 96 97 97 95 96 90 84 73 52 44 47 51 52 50 55 51 47 57 63 69 83 83

GFSFLT2_700_rhum_102.txt.gz
RH
100 94 100 100 100 100 100 99 99 99 98 70 52 38 31 29 29 27 26 25 25 26 22 26 27 28 31
99 100 100 100 100 100 100 99 98 98 96 66 47 36 29 27 30 30 28 26 26 25 26 25 27 31 34
100 100 100 100 100 99 100 99 100 97 90 65 44 32 33 28 28 30 29 27 25 23 23 23 27 34 37
100 99 100 99 100 100 100 100 100 99 84 66 45 32 30 31 32 32 32 31 27 23 26 26 33 39 33
99 99 99 100 99 99 99 100 99 98 85 68 46 32 31 30 32 33 33 28 25 25 29 33 40 37 32
99 99 100 99 99 100 100 99 99 98 90 72 51 38 34 35 36 36 34 30 26 31 35 40 41 34 27
97 100 95 87 97 97 99 99 99 97 85 75 52 40 39 40 40 38 33 30 32 36 38 41 39 24 15
98 88 90 99 100 99 99 99 100 99 92 72 51 44 43 45 43 39 33 32 37 38 36 40 28 14 13
56 85 92 83 100 100 96 99 100 98 99 80 53 46 46 47 44 40 36 38 38 31 28 27 19 25 25
58 62 68 99 86 99 100 98 99 98 92 78 54 48 50 48 46 41 39 39 29 24 18 23 33 38 37
90 94 100 99 88 99 98 99 99 96 95 64 48 49 50 50 46 41 38 29 25 24 24 33 37 40 38
100 100 100 100 97 100 96 98 99 89 83 64 56 56 56 54 48 42 35 27 31 34 35 35 35 33 33
100 97 100 88 99 99 100 91 86 84 78 67 61 63 61 57 49 40 30 34 38 41 42 44 40 42 59
94 98 98 98 99 91 82 90 99 98 83 69 67 66 64 60 45 36 32 37 42 48 55 53 53 62 63
100 92 98 99 98 98 98 99 95 92 80 73 73 72 68 60 41 38 40 49 52 55 58 53 54 58 57
100 91 98 97 99 96 96 97 98 94 82 79 78 76 71 58 43 45 50 55 55 53 58 52 53 54 53
98 97 98 97 95 99 95 99 98 96 95 88 83 81 76 61 45 49 49 51 54 48 51 53 52 54 61

GFSFLT2_700_rhum_105.txt.gz
RH
97 97 100 100 100 99 100 97 98 100 100 100 100 98 92 60 41 30 26 26 25 25 21 21 18 24 19
97 98 99 98 98 100 99 100 100 100 100 100 100 98 84 61 37 30 30 28 27 26 25 21 20 23 19
100 100 99 98 99 99 100 100 100 100 100 100 99 93 60 45 35 32 28 27 26 29 25 24 22 21 20
100 100 100 98 100 100 100 100 100 99 100 99 98 82 70 44 34 32 28 31 30 27 26 24 24 23 25
99 100 100 99 98 99 100 100 100 100 100 99 98 92 72 48 36 34 34 34 31 29 27 24 26 28 32
98 93 100 99 100 100 100 100 99 100 99 100 99 93 81 52 37 37 36 37 34 31 29 25 30 33 38
76 67 89 98 99 99 97 99 99 98 99 99 99 93 83 57 39 37 38 40 37 32 30 31 37 39 39
80 60 89 99 92 99 99 99 99 100 100 99 98 98 88 66 43 42 42 42 39 32 30 35 38 40 36
48 53 91 88 100 79 87 90 98 99 99 99 99 98 94 62 44 42 45 43 39 34 39 34 34 36 24
51 50 55 55 98 99 100 73 98 100 98 99 99 99 92 55 47 44 46 45 41 39 36 29 25 22 22
46 56 76 85 82 91 96 98 99 100 100 98 99 98 91 83 61 45 48 47 42 38 30 22 19 26 35
37 45 99 98 100 94 93 98 99 99 100 99 98 84 75 66 51 49 51 49 41 34 26 24 23 32 37
47 50 51 98 98 99 98 98 98 99 98 99 99 97 75 64 56 57 57 50 41 30 28 33 34 35 35
67 100 57 68 98 98 98 82 98 80 74 91 88 83 75 64 62 62 60 48 37 31 34 38 41 42 40
98 100 99 100 89 97 97 97 98 99 98 99 96 84 77 67 68 67 60 45 33 35 39 44 48 51 54
94 94 97 98 100 95 98 98 97 100 98 98 99 97 84 72 74 68 58 40 34 37 45 52 54 54 58
96 96 95 96 98 100 99 95 97 97 97 98 99 98 85 77 73 70 51 40 38 47 53 54 52 54 55

GFSFLT2_700_rhum_108.txt.gz
RH
100 99 100 100 100 98 100 100 99 99 99 98 100 100 100 100 99 100 96 58 32 27 24 22 21 20 19
99 100 100 100 93 97 99 98 100 100 100 99 100 100 100 100 100 100 89 47 32 27 26 24 24 21 18
98 99 99 100 100 99 100 100 99 99 100 100 100 100 100 100 100 98 68 46 32 28 26 28 25 23 21
99 100 99 98 100 99 98 99 100 100 99 100 100 100 100 100 100 87 55 38 33 31 28 28 26 26 22
98 100 100 100 99 100 100 99 100 100 100 99 99 99 100 99 90 63 50 38 33 32 30 31 30 28 23
76 94 100 100 98 99 100 98 97 97 98 99 100 100 99 99 83 71 51 38 34 36 35 34 33 26 25
51 64 88 69 99 100 97 99 99 100 99 99 99 99 100 99 96 84 60 42 38 37 37 38 33 27 25
52 54 62 86 82 96 100 99 99 99 99 98 100 96 98 100 98 81 68 45 39 39 41 39 33 27 30
32 43 54 58 84 74 96 100 98 99 92 99 99 100 100 99 99 93 79 50 40 41 42 42 35 32 34
5 22 36 48 60 76 100 99 100 99 100 100 98 98 99 99 99 99 87 52 40 43 46 43 36 36 33
6 5 8 29 41 60 88 100 99 98 86 85 89 99 97 97 99 99 97 67 44 46 47 42 37 34 30
10 8 5 12 28 38 67 86 98 88 99 97 98 100 99 98 99 99 97 58 50 48 48 44 38 29 23
10 9 7 8 36 36 57 81 93 98 87 92 98 100 99 99 99 99 98 93 66 55 51 43 34 24 20
9 10 9 15 39 85 100 81 87 92 98 98 98 97 100 99 93 95 90 75 61 56 52 41 28 25 26
21 22 28 40 57 97 100 100 98 98 99 96 99 99 98 99 96 95 80 71 64 59 49 38 28 32 34
30 56 100 59 99 94 95 98 99 88 97 98 97 98 100 99 98 98 80 70 66 60 37 30 31 36 39
41 69 95 67 89 96 96 97 98 100 94 96 98 99 98 98 95 97 79 76 70 55 36 33 36 39 41

GFSFLT2_700_rhum_111.txt.gz
RH
100 100 100 99 100 97 88 82 77 83 76 95 100 100 99 98 98 99 100 100 100 98 93 56 30 21 19
99 98 99 100 100 100 100 99 97 95 100 100 100 100 99 99 99 99 100 100 100 99 97 54 28 24 20
100 100 100 99 100 100 100 100 100 100 99 99 99 99 98 100 100 100 100 100 100 99 90 45 36 24 22
99 100 100 100 100 99 100 99 100 97 98 98 99 100 99 100 100 100 100 100 100 100 70 47 31 26 24
99 99 100 100 100 100 99 99 99 100 98 99 100 99 99 99 100 100 100 100 100 96 60 41 30 28 26
49 51 69 69 83 100 99 99 100 98 97 96 98 100 100 99 99 100 100 100 100 86 54 39 33 30 26
17 37 49 52 57 73 95 98 99 99 100 98 100 98 98 100 100 100 100 99 92 67 54 40 34 30 28
3 4 12 29 50 53 50 74 88 100 100 98 100 100 98 98 100 99 100 99 84 73 55 40 34 32 32
3 4 4 5 15 36 55 58 95 83 100 100 100 100 99 99 99 100 100 99 99 96 71 43 35 33 33
8 7 4 5 5 10 29 51 62 71 65 99 100 100 100 99 99 99 100 99 100 95 74 46 35 36 36
8 9 9 8 6 6 8 30 46 58 58 80 94 99 99 99 100 99 99 99 99 99 83 52 38 37 39
13 11 10 10 9 8 7 10 33 47 66 98 100 100 100 99 99 99 98 99 99 99 97 70 46 44 41
17 15 14 12 12 12 9 8 10 40 75 85 84 100 99 98 98 99 98 97 98 99 99 91 60 50 45
30 24 20 17 14 13 12 9 11 20 44 100 64 89 99 97 99 100 99 98 99 99 99 98 64 52 47
30 26 24 22 15 13 12 11 22 31 68 99 99 100 99 97 88 98 95 99 99 99 98 96 65 56 47
47 42 34 29 25 31 91 48 62 52 84 93 97 100 100 98 100 98 95 99 98 98 98 97 88 57 40
60 50 41 34 42 43 55 70 93 95 96 83 98 93 100 98 99 98 99 100 99 99 98 95 79 48 26

GFSFLT2_700_rhum_114.txt.gz
RH
98 98 99 98 98 100 98 99 100 100 98 94 94 85 82 81 90 100 100 99 98 100 100 99 98 87 79
98 100 100 100 99 100 99 99 100 99 100 98 98 95 89 80 91 100 100 97 98 100 100 97 99 93 89
99 100 100 100 100 100 100 100 98 100 100 100 98 100 99 96 98 98 99 91 100 98 100 99 100 99 96
71 98 100 100 99 100 100 100 99 99 100 99 100 98 100 99 100 99 99 100 100 100 100 100 97 99 100
30 46 53 96 99 99 100 100 99 99 98 100 100 100 100 100 100 100 100 100 100 100 100 99 99 100 95
3 6 19 43 50 74 99 99 99 100 99 99 99 100 100 98 100 100 100 100 100 100 100 99 100 100 74
2 2 3 3 11 34 47 53 66 62 98 98 99 100 99 96 97 100 100 100 100 100 100 99 99 98 57
5 4 3 3 3 3 5 21 41 48 67 94 100 100 99 99 100 100 100 96 96 99 100 100 100 88 50
8 8 9 7 5 4 3 3 4 13 36 49 56 98 99 100 98 100 98 100 100 100 100 100 100 72 54
11 11 9 8 9 9 8 4 4 4 10 21 49 62 85 100 100 100 99 100 100 100 100 100 97 75 63
13 11 12 12 11 10 9 9 8 5 5 10 21 46 78 91 100 99 100 100 100 100 100 100 100 95 95
24 21 18 16 16 15 13 11 10 9 8 7 10 22 47 62 95 98 99 99 99 99 100 100 100 100 98
31 26 24 22 19 18 17 15 12 11 10 9 8 13 22 47 75 97 98 98 99 99 99 99 100 99 100
36 33 33 30 28 25 20 17 15 13 12 11 10 10 24 73 62 76 100 98 99 98 99 99 99 99 99
46 42 38 38 29 23 23 20 16 14 13 12 11 11 31 100 98 74 100 100 99 100 98 98 98 98 99
49 50 54 52 36 29 28 25 18 13 39 15 11 15 25 93 96 94 98 99 98 99 99 98 98 100 100
59 61 66 61 49 40 35 37 80 47 77 68 84 46 51 67 80 69 65 80 98 100 95 98 98 99 99

GFSFLT2_700_rhum_117.txt.gz
RH
100 100 99 89 97 98 91 97 98 99 99 100 100 100 99 98 98 99 97 98 94 88 99 100 100 98 98
100 99 99 100 94 99 100 100 100 100 99 99 100 98 100 99 99 99 100 99 100 86 99 100 100 100 100
98 100 99 99 100 99 99 100 98 97 100 99 99 98 98 100 99 99 99 99 95 98 99 100 99 100 100
26 63 42 49 69 94 100 100 100 100 100 100 100 100 99 100 100 100 99 99 100 100 99 100 98 100 100
3 3 5 8 16 24 43 97 99 100 100 100 100 99 99 99 99 99 99 99 100 99 100 100 100 100 100
3 2 2 2 3 3 7 27 68 98 100 100 99 100 100 99 100 100 100 99 100 99 100 100 100 100 100
6 5 4 4 3 3 3 3 7 30 51 87 99 100 100 99 100 99 99 98 99 100 100 100 100 100 99
7 6 6 6 7 6 3 2 2 3 5 22 48 68 72 97 99 99 100 100 99 100 100 100 100 100 99
8 6 6 6 5 5 6 6 4 3 3 3 3 16 36 46 96 95 99 92 99 100 100 100 99 99 99
11 14 16 15 11 8 6 5 5 5 7 5 3 3 4 18 52 97 91 100 98 99 100 99 100 100 100
14 17 17 16 16 15 13 11 8 6 5 6 7 5 3 3 11 46 88 100 100 99 99 100 100 100 99
41 35 30 26 24 22 20 18 16 11 9 9 6 7 7 4 3 8 48 94 99 100 100 100 100 100 100
51 51 44 37 31 28 24 21 19 18 17 14 12 10 8 8 6 4 12 53 95 99 100 99 98 100 99
54 50 45 40 35 33 28 24 22 20 21 18 15 14 12 9 9 7 5 23 78 98 100 99 99 98 99
63 59 52 45 38 36 36 38 32 24 19 18 17 15 14 12 10 9 8 6 32 82 100 98 99 99 99
63 62 56 49 44 42 49 48 34 28 26 20 18 14 13 13 12 10 10 9 10 67 94 98 98 98 98
59 59 60 53 51 51 57 55 45 39 32 28 82 60 78 44 14 15 12 10 15 68 98 97 99 98 98